FENGYUN 1C DEB, 31905

Orbit data source: Space-Track

FENGYUN 1C DEB, 31905 is space debris in SSO originally from a launch on Mon, 10 May 1999 UTC launched from the Taiyaun Space Center, China (TSC). Fengyun 1C debris stems from the Chinese weather satellite Fengyun-1C, which was intentionally destroyed by a Chinese anti-satellite missile in 2007. This event dramatically increased the amount of space debris, with thousands of trackable fragments posing hazards to satellites and human spaceflight. The Fengyun 1C debris cloud has become a focal point in discussions about space sustainability and the need for international regulations to prevent the creation of new debris.

Loading next visibility...
Identifier
31905, 1999-025CLG
Orbit
SSO
Country
Flag of CNCN / PRC
Related business
Manufacturer
Unknown
Mission
Spacecraft
Bus & Motor
Unknown
Mass
Unknown
Launch date (UTC)
1999-05-10 (27 years ago)
Launch vehicle
Unknown
Launch site
Taiyaun Space Center, China (TSC)
Object type
Payload
Rocket body
Debris
Shape & HBR
Unknown shape, 0.1 m
Radar Cross Section
Small (<0.1 m²)

Expand to show TLE details & history
Last TLE update: 1 day ago

TLE from 1 day ago
0 FENGYUN 1C DEB
1 31905U 99025CLG 26207.70442184  .00001260  00000-0  38108-3 0  9992
2 31905  99.1681 202.3121 0194117 156.5703 204.4474 14.34004190998620
Epoch: 2026-07-26T16:54Z
TLE epoch observation values (Epoch: 2026-07-26T16:54:22.046Z)
Latitude
-0.00007°
Longitude
4.32172°
Altitude
908.239 km
Speed
7.332 km/s
True Right ascension
13h 29m 14s
True Declination
0° 00' 00"
Sunlit
Object was in daylight at epoch
Visualization orbit readout
Latitude
Unknown
Longitude
Unknown
Altitude
Unknown
Speed
Unknown
Apparent Right ascension
Unknown
Apparent Declination
Unknown
Sunlit
N/A
Visualization observer readout
Local Sidereal Time
12:00:02
Azimuth
Unknown
Elevation
Unknown
Doppler factor
Unknown
Orbital elements
Apogee altitude
914.404 km
Perigee altitude
636.674 km
Semi-major axis
7,153.676 km
Eccentricity
0.01941
Inclination
99.1681°
RAAN
202.3121°
Arg. of periapsis
156.5703°
True anomaly
203.54676°
Mean anomaly
204.4474°
Eccentric anomaly
203.99511°
Mean motion
3.58715 °/min
Orbital period
100.36 mins
BSTAR
0.00038108
Loading maneuver chart data...
Computing Atmospheric mass density...
Loading historical data...
Loading historical data...
Loading historical data...
Loading historical data...
Loading historical data...
Loading historical data...
Loading historical data...

Documentation

Showing up to 5 results
|